Regional Weather Roundup
Issued by NWS Memphis, TN

Home | Current Version | Previous Version | Text Only | Print | Product List | Glossary On
Versions: 1 2 3 4 5 6 7 8 9 10 11 12 13 14 15 16 17 18 19 20 21 22 23 24 25 26 27 28 29 30 31 32 33 34 35 36 37 38 39 40 41 42 43 44 45 46 47 48 49 50
000
ASUS44 KMEG 270510
RWRMEG
MEMPHIS CWA HOURLY WEATHER ROUNDUP
NATIONAL WEATHER SERVICE MEMPHIS TN
1100 PM CST THU FEB 26 2015

...WEST TENNESSEE...

CITY           SKY/WX    TMP DP  RH WIND       PRES   REMARKS
MEMPHIS INTL   MOCLDY    27  14  59 N14       30.42R WCI  15
NWS MEMPHIS      N/A     25 N/A N/A MISG        N/A
JACKSON        CLOUDY    26  16  65 N17       30.40R WCI  13
LEXINGTON      CLOUDY    27  19  74 N10       30.35R WCI  17
SAVANNAH       CLOUDY    28  21  74 N9        30.35S WCI  20
DYERSBURG      CLEAR     23   3  42 N12G17    30.45R WCI  12
UNION CITY     CLEAR     19  14  79 N12       30.42S WCI   7
PARIS          CLOUDY    21  16  79 N7        30.40R WCI  13


...EASTERN ARKANSAS...

CITY           SKY/WX    TMP DP  RH WIND       PRES   REMARKS
JONESBORO      CLOUDY    25  14  63 N8        30.46R WCI  16
WEST MEMPHIS   CLOUDY    27  17  66 N13G23    30.43R WCI  16
BATESVILLE     CLEAR     21  10  63 NW5       30.47S WCI  15
NEWPORT        CLEAR     23  15  71 N10       30.49R WCI  12
WALNUT RIDGE   MOCLDY    25  10  54 N15       30.48R WCI  12
BLYTHEVILLE    CLOUDY    25  18  74 NE22      30.46R WCI  10
SEARCY         CLEAR     24  14  65 N9        30.49R WCI  14
STUTTGART      CLEAR     27  16  63 N15       30.45S WCI  15
PINE BLUFF     CLEAR     28  17  63 N16       30.44R WCI  16
MONTICELLO     CLEAR     30  20  66 N8        30.40S WCI  22


...NORTH MISSISSIPPI...

CITY           SKY/WX    TMP DP  RH WIND       PRES   REMARKS
TUPELO         CLOUDY    30  23  75 N17       30.36R WCI  18
OXFORD         CLOUDY    27  19  74 N8G20     30.39S WCI  18
OLIVE BRANCH   CLEAR     25  19  80 N15       30.41R WCI  12
TUNICA         MOCLDY    30  21  69 N15       30.44R WCI  19
CLARKSDALE     MOCLDY    28  21  74 N16G22    30.43R WCI  17
CORINTH        CLOUDY    30  21  69 N9G17     30.35R WCI  22
GREENWOOD        N/A    N/A N/A N/A MISG      30.38R
COLUMBUS       CLOUDY    33  27  76 NW13      30.33R WCI  24
STARKVILLE     CLOUDY    32  30  93 NW5       30.34R WCI  27
GOLDEN TRIANGL CLOUDY    34  27  75 NW12      30.32R WCI  25


...SOUTHEAST MISSOURI...

CITY           SKY/WX    TMP DP  RH WIND       PRES   REMARKS
WEST PLAINS    CLEAR     15   3  59 N8        30.44R WCI   4
POPLAR BLUFF   CLOUDY    23  10  57 N15       30.46R WCI  10


...NORTHWEST ALABAMA...

CITY           SKY/WX    TMP DP  RH WIND       PRES   REMARKS
MUSCLE SHOALS  CLOUDY    33  23  66 N10G17    30.31S WCI  25


...MIDDLE TENNESSEE...

CITY           SKY/WX    TMP DP  RH WIND       PRES   REMARKS
NASHVILLE      CLOUDY    27  18  69 N8G22     30.35R WCI  19
CLARKSVILLE    CLEAR     22  16  78 N8        30.39R WCI  12
COLUMBIA       CLOUDY    27  27 100 N10       30.31R WCI  17


...WESTERN KENTUCKY...

CITY           SKY/WX    TMP DP  RH WIND       PRES   REMARKS
PADUCAH        CLOUDY    21  12  68 N12       30.44R WCI   9
FORT CAMPBELL  CLEAR     22  16  78 N7        30.39R WCI  13


...CENTRAL ARKANSAS...

CITY           SKY/WX    TMP DP  RH WIND       PRES   REMARKS
LITTLE ROCK    CLEAR     28  15  58 N9        30.47R WCI  19


SKY/WX REPORTED AS FAIR MEANS FEW OR NO CLOUDS BELOW
12 THOUSAND FEET.



USA.gov is the U.S. government's official web portal to all federal, state and local government web resources and services.